Hourly Data Report for October 15, 2014

All times are specified in Local Standard Time (LST). Add 1 hour to adjust for Daylight Saving Time where and when it is observed.

CLYDE RIVER A
NUNAVUT

70°29'09.000" N
68°31'01.000" W
26.50 m
2400804
71090
YCY

Download Data

Hourly Data (October 2014)
Hourly Data Report for October 15, 2014
Temp Definition
°C
Dew Point Temp Definition
°C
Rel Hum Definition
%
Wind Dir Definition
10's deg

Wind Spd Definition
km/h
Visibility Definition
km
Stn Press Definition
kPa
Hmdx Definition


Wind Chill Definition


Weather Definition


TIME
00:00 Legend Double Dagger -2.6 -3.3 95 34 15 16.1 100.79   -8 LegendNANA
01:00 Legend Double Dagger -1.9 -2.7 94 36 15 12.9 100.76   -7 Snow
02:00 Legend Double Dagger -1.9 -2.5 96 35 17 4.0 100.71   -7 Snow
03:00 Legend Double Dagger -1.7 -2.1 97 35 26 3.6 100.69   -8 Snow
04:00 Legend Double Dagger -1.6 -2.2 96 35 30 2.0 100.65   -9 Snow
05:00 Legend Double Dagger -1.6 -2.2 96 35 37 1.6 100.58   -9 Snow
06:00 Legend Double Dagger -1.3 -1.9 96 35 35 2.0 100.53   -9 Snow
07:00 Legend Double Dagger -1.2 -1.6 97 34 37 1.2 100.47   -9 Snow
08:00 Legend Double Dagger -0.8 -1.2 97 34 35 1.2 100.41   -8 Snow
09:00 Legend Double Dagger 0.0 -0.3 98 1 28 1.6 100.37   -6 Snow
10:00 Legend Double Dagger 0.1 -0.2 98 2 30 2.0 100.30     Snow
11:00 Legend Double Dagger 0.1 -0.2 98 2 30 2.4 100.23     Snow
12:00 Legend Double Dagger 0.2 -0.2 97 3 34 2.0 100.17     Snow
13:00 Legend Double Dagger 0.1 -0.3 97 3 35 2.8 100.13     Snow
14:00 Legend Double Dagger 0.2 -0.2 97 4 37 4.0 100.09     Snow
15:00 Legend Double Dagger 0.2 -0.1 98 4 35 2.8 100.06     Snow
16:00 Legend Double Dagger 0.2 -0.1 98 4 34 3.2 100.05     Snow
17:00 Legend Double Dagger 0.2 -0.1 98 4 30 3.2 100.03     Snow
18:00 Legend Double Dagger 0.2 0.1 99 4 32 2.4 100.01     Snow
19:00 Legend Double Dagger 0.2 0.0 98 5 30 2.4 99.99     Snow
20:00 Legend Double Dagger 0.2 0.1 99 5 30 2.0 99.98     Snow
21:00 Legend Double Dagger 0.2 0.1 99 6 32 2.4 99.97     Snow
22:00 Legend Double Dagger 0.2 0.1 99 6 28 2.0 99.99     Snow
23:00 Legend Double Dagger 0.2 0.1 99 6 28 4.0 99.99     Fog

Notes on Data Quality.

Legend

  • E = Estimated
  • M = Missing
  • NA = Not Available
  • ‡ = Partner data that is not subject to review by the National Climate Archives
Date modified: